Location: 3 Angels Observatory
(30.5437°N, 88.5068°W)
Time: 18:15:53
(UTC-06:00)

Daily predictions for brighter satellites

Satellite Brightness Start Highest point End
(mag) Time Altitude Azimuth Time Altitude Azimuth Time Altitude Azimuth
Cosmos 1709 Rocket 4.2 18:03:52 10° SSE 18:09:53 52° E 18:15:50 10° NNE
Cosmos 1484 Rocket 3.5 18:08:28 10° S 18:12:25 62° W 18:16:19 10° NNW
CZ-4 R/B 4.4 18:10:34 10° SSW 18:13:50 23° W 18:17:09 10° NW
Cosmos 1954 Rocket 4.0 18:12:07 10° S 18:17:16 78° ESE 18:22:29 10° NNE
OTV 4 2.6 18:17:52 10° S 18:19:33 14° SE 18:21:14 10° ESE
Meteor 1-18 Rocket 4.3 18:14:41 10° N 18:20:17 88° W 18:25:56 10° S
Helios 1B rocket 4.4 18:20:19 10° ENE 18:21:24 11° E 18:22:30 10° ESE
SJ-6B 3.6 18:17:51 10° SE 18:21:27 32° ENE 18:25:00 10° N
Cosmos 2151 Rocket 3.8 18:17:01 10° S 18:21:30 78° W 18:26:02 10° N
Okean 1 Rocket 3.8 18:18:31 10° SSE 18:22:31 33° E 18:26:32 10° NNE
Cosmos 2322 Rocket 2.2 18:17:06 10° NNW 18:22:44 87° ENE 18:28:20 10° SSE
Meteor 1-28 Rocket 4.2 18:19:21 10° N 18:23:03 51° WNW 18:26:45 10° SSW
Tiangong 2 2.1 18:21:22 10° NW 18:24:09 30° NNE 18:26:32 12° E
FENGYUN 3A 4.5 18:20:41 10° SE 18:25:15 29° ENE 18:29:50 10° NNE
Hubble Space Telescope 2.3 18:25:03 10° SSW 18:28:21 23° SSE 18:31:23 11° ESE
Gbstr 26 Del rocket 3.8 18:28:25 10° WSW 18:32:13 42° NW 18:35:47 10° NNE
NOAA 12 4.1 18:30:56 10° SSE 18:36:13 76° ENE 18:41:33 10° N
Cosmos 2322 4.3 18:33:45 10° N 18:38:59 36° ENE 18:44:09 10° SE
Atlas Centaur 2 4.3 18:36:39 10° S 18:40:14 14° SSE 18:43:30 10° ESE
Cosmos 1238 Rocket 2.5 18:37:31 10° NNE 18:40:18 38° E 18:43:11 10° SSE
GPS 2-04 Rocket1 2.9 18:39:07 10° WSW 18:43:23 81° NNW 18:46:29 19° ENE
METEOR-M 4.2 18:41:48 10° SSE 18:47:09 85° WSW 18:52:31 10° NNW
Cosmos 1025 Rocket 4.2 18:44:37 10° NNE 18:48:01 22° ENE 18:48:42 21° E
H-2A R/B 3.7 18:46:25 19° ESE 18:48:02 25° ENE 18:51:07 10° NNE
Cosmos 1536 2.9 18:44:17 10° S 18:48:10 53° E 18:52:03 10° NNE
Meteor 1-13 Rocket 4.2 18:42:49 10° N 18:48:22 65° E 18:54:00 10° SSE
GEOS 3 Rocket 3.7 18:43:10 10° NNE 18:48:27 84° WNW 18:53:44 10° SW
Cosmos 1633 3.5 18:49:03 10° SSW 18:52:38 52° W 18:56:15 10° N
COSMOS 2428 3.7 18:49:39 10° N 18:54:14 24° ENE 18:55:38 22° E
Okean 1-7 Rocket 4.1 18:50:10 10° NNE 18:54:20 36° E 18:58:25 10° SSE
SL-08 ROCKET BODY 4.5 18:49:02 10° S 18:55:01 57° E 19:01:04 10° NNE
Meteor 2-4 Rocket 3.9 18:52:08 10° N 18:57:24 45° E 19:02:30 10° SSE
Cosmos 1741 Rocket 3.9 18:55:32 10° SSW 19:00:46 90° ESE 19:06:01 10° NNE
Cosmos 2219 3.2 19:03:20 10° SSW 19:09:05 88° WNW 19:14:52 10° NNE
Cosmos 2360 Rocket 2.1 19:07:52 10° NNW 19:13:34 87° ENE 19:19:13 10° SSE
Cosmos 2219 Rocket 3.7 19:11:10 10° NNE 19:13:35 18° NE 19:13:35 18° NE
Cosmos 2227 Rocket 3.5 19:10:53 10° SSE 19:13:25 21° SE 19:13:25 21° SE
Skynet4D Del rocket 4.3 19:12:11 10° SW 19:17:06 37° SSE 19:18:32 31° SE
Cosmos 1570 Rocket 3.9 19:17:02 10° N 19:22:12 59° ENE 19:24:15 35° SE
BREEZE-M DEB (TANK) 4.4 19:18:49 10° WSW 19:22:29 23° NW 19:23:46 17° N
Resurs 01 Rocket 1.5 19:19:10 10° SSE 19:23:35 86° WSW 19:28:00 10° NNW
Abrixas rocket 4.1 19:26:11 10° W 19:29:02 26° NW 19:29:39 24° NNW
Cosmos 1610 Rocket 4.4 19:23:33 10° S 19:29:45 67° E 19:35:53 10° NNE
DELTA 2 R/B (1) 3.6 19:24:45 10° WNW 19:30:22 69° NNE 19:31:31 54° E
ATLAS CENTAUR R/B 1.7 19:24:48 10° SW 19:30:38 73° NW 19:30:46 71° NNW
ALOS 3.1 19:28:00 10° S 19:32:31 49° W 19:37:03 10° NNW
OAO 3 Copernicus 4.1 19:29:46 10° WNW 19:34:52 90° S 19:35:29 69° ESE
Spot 2 Rocket 3.8 19:33:27 10° S 19:38:26 66° WSW 19:43:29 10° NNW
Helios 1A 4.4 19:40:56 27° N 19:40:56 27° N 19:42:54 10° N
Resurs 1-3 4.0 19:37:15 12° S 19:41:18 63° WSW 19:45:39 10° NNW
Delta R/B 3.9 19:33:09 10° W 19:43:31 60° S 19:43:34 60° S
Cosmos 2333 Rocket 3.9 19:44:06 10° N 19:46:14 20° NNE 19:46:14 20° NNE
Cosmos 2208 Rocket 4.0 19:43:49 10° NNW 19:49:15 81° WSW 19:50:30 54° S
USA 229 DEB 4.0 19:47:55 10° NNW 19:54:33 52° NE 19:54:33 52° NE
USA 229 4.0 19:48:01 10° NNW 19:54:36 51° NE 19:54:36 51° NE
OTV 4 3.7 19:52:23 10° WSW 19:52:48 13° WSW 19:52:48 13° WSW
Helios 1B rocket 3.6 19:54:32 21° NNW 19:56:50 41° WNW 20:00:43 10° SW
Tiangong 2 4.3 19:57:56 10° W 19:58:32 14° W 19:58:32 14° W
Hubble Space Telescope 3.0 20:05:14 10° WSW 20:06:47 21° WSW 20:06:47 21° WSW
ATLAS 3B CENTAUR R/B 4.4 19:47:02 10° SW 20:13:36 52° SSE 20:16:23 47° SE
BREEZE-M DEB (TANK) 4.2 20:15:25 10° NW 20:17:19 37° NNW 20:17:19 37° NNW
Atlas Centaur 2 4.0 20:23:16 10° SW 20:26:14 23° SSW 20:26:14 23° SSW
COSMOS 2428 4.1 20:33:21 10° NW 20:37:45 34° W 20:37:45 34° W
Cosmos 2219 Rocket 4.5 20:53:58 10° NW 20:55:22 18° NW 20:55:22 18° NW
